Year,Month,Day,Hour,Minute,Value (Times are PST for windgust in km/hr)
2019,04,07,00,00,3.20
2019,04,07,00,01,1.60
2019,04,07,00,05,1.60
2019,04,07,00,06,1.60
2019,04,07,00,07,1.60
2019,04,07,00,08,1.60
2019,04,07,00,09,3.20
2019,04,07,00,10,1.60
2019,04,07,00,11,1.60
2019,04,07,00,12,1.60
2019,04,07,00,13,4.80
2019,04,07,00,14,4.80
2019,04,07,00,15,4.80
2019,04,07,00,16,4.80
2019,04,07,00,17,1.60
2019,04,07,00,18,1.60
2019,04,07,00,19,1.60
2019,04,07,00,20,1.60
2019,04,07,00,24,3.20
2019,04,07,00,25,4.80
2019,04,07,00,26,4.80
2019,04,07,00,27,4.80
2019,04,07,00,28,4.80
2019,04,07,00,29,4.80
2019,04,07,00,30,4.80
2019,04,07,00,31,4.80
2019,04,07,00,32,6.40
2019,04,07,00,33,6.40
2019,04,07,00,34,4.80
2019,04,07,00,35,6.40
2019,04,07,00,36,6.40
2019,04,07,00,37,6.40
2019,04,07,00,38,4.80
2019,04,07,00,39,6.40
2019,04,07,00,40,8.10
2019,04,07,00,41,8.10
2019,04,07,00,42,6.40
2019,04,07,00,43,4.80
2019,04,07,00,44,8.10
2019,04,07,00,45,4.80
2019,04,07,00,46,6.40
2019,04,07,00,47,6.40
2019,04,07,00,48,1.60
2019,04,07,00,49,3.20
2019,04,07,00,50,4.80
2019,04,07,00,51,3.20
2019,04,07,00,52,4.80
2019,04,07,00,53,4.80
2019,04,07,00,54,6.40
2019,04,07,00,55,6.40
2019,04,07,00,56,8.10
2019,04,07,00,57,8.10
2019,04,07,00,58,6.40
2019,04,07,00,59,8.10
2019,04,07,01,00,8.10
2019,04,07,01,01,8.10
2019,04,07,01,02,9.60
2019,04,07,01,03,9.60
2019,04,07,01,04,8.10
2019,04,07,01,05,9.60
2019,04,07,01,06,11.30
2019,04,07,01,07,9.60
2019,04,07,01,08,11.30
2019,04,07,01,09,9.60
2019,04,07,01,10,9.60
2019,04,07,01,11,9.60
2019,04,07,01,12,9.60
2019,04,07,01,13,6.40
2019,04,07,01,14,9.60
2019,04,07,01,15,6.40
2019,04,07,01,16,8.10
2019,04,07,01,17,6.40
2019,04,07,01,18,4.80
2019,04,07,01,19,6.40
2019,04,07,01,20,4.80
2019,04,07,01,21,1.60
2019,04,07,01,22,4.80
2019,04,07,01,23,3.20
2019,04,07,01,24,3.20
2019,04,07,01,25,6.40
2019,04,07,01,26,4.80
2019,04,07,01,27,3.20
2019,04,07,01,28,3.20
2019,04,07,01,29,1.60
2019,04,07,01,31,3.20
2019,04,07,01,32,6.40
2019,04,07,01,33,4.80
2019,04,07,01,34,6.40
2019,04,07,01,35,6.40
2019,04,07,01,36,4.80
2019,04,07,01,37,3.20
2019,04,07,01,38,1.60
2019,04,07,01,39,3.20
2019,04,07,01,40,3.20
2019,04,07,01,41,1.60
2019,04,07,01,42,1.60
2019,04,07,01,43,1.60
2019,04,07,01,45,1.60
2019,04,07,01,46,4.80
2019,04,07,01,47,6.40
2019,04,07,01,48,6.40
2019,04,07,01,49,8.10
2019,04,07,01,50,6.40
2019,04,07,01,51,4.80
2019,04,07,01,52,11.30
2019,04,07,01,53,8.10
2019,04,07,01,54,6.40
2019,04,07,01,55,3.20
2019,04,07,01,56,12.90
2019,04,07,01,57,11.30
2019,04,07,01,58,6.40
2019,04,07,01,59,3.20
2019,04,07,02,00,1.60
2019,04,07,02,01,3.20
2019,04,07,02,02,1.60
2019,04,07,02,03,3.20
2019,04,07,02,04,4.80
2019,04,07,02,05,4.80
2019,04,07,02,06,4.80
2019,04,07,02,07,12.90
2019,04,07,02,08,8.10
2019,04,07,02,09,6.40
2019,04,07,02,10,9.60
2019,04,07,02,11,9.60
2019,04,07,02,12,8.10
2019,04,07,02,13,4.80
2019,04,07,02,14,3.20
2019,04,07,02,15,3.20
2019,04,07,02,16,3.20
2019,04,07,02,17,9.60
2019,04,07,02,18,4.80
2019,04,07,02,19,3.20
2019,04,07,02,20,1.60
2019,04,07,02,21,1.60
2019,04,07,02,24,1.60
2019,04,07,02,25,9.60
2019,04,07,02,26,8.10
2019,04,07,02,27,4.80
2019,04,07,02,28,4.80
2019,04,07,02,29,6.40
2019,04,07,02,30,6.40
2019,04,07,02,31,4.80
2019,04,07,02,32,1.60
2019,04,07,02,34,12.90
2019,04,07,02,35,9.60
2019,04,07,02,36,11.30
2019,04,07,02,37,8.10
2019,04,07,02,38,11.30
2019,04,07,02,39,8.10
2019,04,07,02,40,9.60
2019,04,07,02,41,11.30
2019,04,07,02,42,14.50
2019,04,07,02,43,6.40
2019,04,07,02,44,9.60
2019,04,07,02,45,6.40
2019,04,07,02,46,9.60
2019,04,07,02,47,11.30
2019,04,07,02,48,11.30
2019,04,07,02,49,3.20
2019,04,07,02,50,4.80
2019,04,07,02,51,8.10
2019,04,07,02,52,9.60
2019,04,07,02,53,4.80
2019,04,07,02,54,8.10
2019,04,07,02,55,3.20
2019,04,07,02,56,3.20
2019,04,07,02,57,1.60
2019,04,07,02,58,6.40
2019,04,07,02,59,4.80
2019,04,07,03,00,6.40
2019,04,07,03,01,1.60
2019,04,07,03,02,1.60
2019,04,07,03,03,3.20
2019,04,07,03,04,1.60
2019,04,07,03,05,4.80
2019,04,07,03,06,3.20
2019,04,07,03,07,1.60
2019,04,07,03,09,1.60
2019,04,07,03,10,1.60
2019,04,07,03,18,4.80
2019,04,07,03,19,3.20
2019,04,07,03,20,1.60
2019,04,07,03,23,1.60
2019,04,07,03,25,1.60
2019,04,07,03,26,3.20
2019,04,07,03,28,6.40
2019,04,07,03,29,4.80
2019,04,07,03,30,1.60
2019,04,07,03,31,1.60
2019,04,07,03,35,1.60
2019,04,07,03,36,3.20
2019,04,07,03,38,3.20
2019,04,07,03,39,1.60
2019,04,07,03,40,4.80
2019,04,07,03,41,3.20
2019,04,07,03,42,3.20
2019,04,07,03,43,3.20
2019,04,07,03,44,4.80
2019,04,07,03,45,4.80
2019,04,07,03,46,4.80
2019,04,07,03,47,4.80
2019,04,07,03,48,3.20
2019,04,07,03,49,4.80
2019,04,07,03,50,4.80
2019,04,07,03,51,4.80
2019,04,07,03,52,3.20
2019,04,07,03,53,3.20
2019,04,07,03,54,1.60
2019,04,07,03,55,3.20
2019,04,07,03,56,4.80
2019,04,07,03,57,4.80
2019,04,07,03,58,3.20
2019,04,07,03,59,4.80
2019,04,07,04,00,4.80
2019,04,07,04,01,4.80
2019,04,07,04,02,4.80
2019,04,07,04,03,3.20
2019,04,07,04,04,3.20
2019,04,07,04,08,1.60
2019,04,07,04,09,4.80
2019,04,07,04,10,4.80
2019,04,07,04,11,3.20
2019,04,07,04,12,3.20
2019,04,07,04,13,4.80
2019,04,07,04,14,6.40
2019,04,07,04,15,8.10
2019,04,07,04,16,6.40
2019,04,07,04,17,8.10
2019,04,07,04,18,8.10
2019,04,07,04,19,8.10
2019,04,07,04,20,8.10
2019,04,07,04,21,8.10
2019,04,07,04,22,6.40
2019,04,07,04,23,6.40
2019,04,07,04,24,4.80
2019,04,07,04,25,4.80
2019,04,07,04,26,4.80
2019,04,07,04,27,4.80
2019,04,07,04,28,1.60
2019,04,07,04,31,1.60
2019,04,07,04,32,3.20
2019,04,07,04,33,3.20
2019,04,07,04,34,4.80
2019,04,07,04,35,3.20
2019,04,07,04,36,6.40
2019,04,07,04,37,4.80
2019,04,07,04,38,3.20
2019,04,07,04,39,4.80
2019,04,07,04,40,1.60
2019,04,07,04,41,1.60
2019,04,07,04,43,1.60
2019,04,07,04,44,1.60
2019,04,07,04,47,1.60
2019,04,07,04,50,1.60
2019,04,07,04,51,1.60
2019,04,07,04,52,1.60
2019,04,07,05,05,3.20
2019,04,07,05,06,3.20
2019,04,07,05,07,4.80
2019,04,07,05,08,4.80
2019,04,07,05,09,4.80
2019,04,07,05,10,4.80
2019,04,07,05,11,4.80
2019,04,07,05,12,4.80
2019,04,07,05,13,3.20
2019,04,07,05,14,3.20
2019,04,07,05,15,4.80
2019,04,07,05,16,3.20
2019,04,07,05,17,3.20
2019,04,07,05,18,1.60
2019,04,07,05,19,1.60
2019,04,07,05,20,4.80
2019,04,07,05,21,4.80
2019,04,07,05,22,4.80
2019,04,07,05,23,3.20
2019,04,07,05,24,1.60
2019,04,07,05,57,6.40
2019,04,07,05,58,4.80
2019,04,07,05,59,6.40
2019,04,07,06,00,6.40
2019,04,07,06,01,8.10
2019,04,07,06,02,8.10
2019,04,07,06,03,6.40
2019,04,07,06,04,6.40
2019,04,07,06,05,9.60
2019,04,07,06,06,11.30
2019,04,07,06,07,8.10
2019,04,07,06,08,8.10
2019,04,07,06,09,8.10
2019,04,07,06,10,8.10
2019,04,07,06,11,8.10
2019,04,07,06,12,4.80
2019,04,07,06,13,6.40
2019,04,07,06,14,6.40
2019,04,07,06,15,8.10
2019,04,07,06,16,9.60
2019,04,07,06,17,9.60
2019,04,07,06,18,9.60
2019,04,07,06,19,9.60
2019,04,07,06,20,8.10
2019,04,07,06,21,6.40
2019,04,07,06,22,6.40
2019,04,07,06,23,4.80
2019,04,07,06,24,4.80
2019,04,07,06,25,3.20
2019,04,07,06,26,1.60
2019,04,07,06,28,1.60
2019,04,07,06,29,1.60
2019,04,07,06,30,1.60
2019,04,07,06,31,3.20
2019,04,07,06,32,1.60
2019,04,07,06,35,1.60
2019,04,07,06,36,1.60
2019,04,07,06,37,3.20
2019,04,07,06,38,1.60
2019,04,07,06,44,1.60
2019,04,07,06,45,3.20
2019,04,07,06,46,4.80
2019,04,07,06,49,3.20
2019,04,07,06,50,3.20
2019,04,07,06,51,1.60
2019,04,07,06,52,4.80
2019,04,07,06,53,3.20
2019,04,07,06,54,4.80
2019,04,07,06,55,1.60
2019,04,07,06,56,3.20
2019,04,07,06,57,1.60
2019,04,07,06,58,4.80
2019,04,07,06,59,4.80
2019,04,07,07,00,3.20
2019,04,07,07,01,4.80
2019,04,07,07,02,6.40
2019,04,07,07,03,4.80
2019,04,07,07,04,8.10
2019,04,07,07,05,4.80
2019,04,07,07,06,3.20
2019,04,07,07,07,3.20
2019,04,07,07,08,1.60
2019,04,07,07,09,4.80
2019,04,07,07,10,8.10
2019,04,07,07,11,8.10
2019,04,07,07,12,6.40
2019,04,07,07,13,6.40
2019,04,07,07,14,4.80
2019,04,07,07,15,3.20
2019,04,07,07,16,6.40
2019,04,07,07,17,6.40
2019,04,07,07,18,4.80
2019,04,07,07,19,4.80
2019,04,07,07,20,3.20
2019,04,07,07,21,3.20
2019,04,07,07,22,3.20
2019,04,07,07,23,1.60
2019,04,07,07,26,3.20
2019,04,07,07,27,1.60
2019,04,07,07,28,4.80
2019,04,07,07,29,3.20
2019,04,07,07,30,1.60
2019,04,07,07,31,1.60
2019,04,07,07,32,1.60
2019,04,07,07,33,1.60
2019,04,07,07,34,1.60
2019,04,07,07,37,1.60
2019,04,07,07,38,1.60
2019,04,07,07,39,4.80
2019,04,07,07,40,3.20
2019,04,07,07,41,4.80
2019,04,07,07,42,4.80
2019,04,07,07,43,1.60
2019,04,07,07,44,3.20
2019,04,07,07,45,3.20
2019,04,07,07,46,4.80
2019,04,07,07,47,6.40
2019,04,07,07,48,3.20
2019,04,07,07,49,1.60
2019,04,07,07,50,1.60
2019,04,07,07,51,4.80
2019,04,07,07,52,9.60
2019,04,07,07,53,6.40
2019,04,07,07,54,4.80
2019,04,07,07,55,4.80
2019,04,07,07,56,3.20
2019,04,07,07,57,1.60
2019,04,07,07,58,1.60
2019,04,07,07,59,3.20
2019,04,07,08,00,3.20
2019,04,07,08,01,3.20
2019,04,07,08,02,1.60
2019,04,07,08,03,1.60
2019,04,07,08,04,3.20
2019,04,07,08,05,3.20
2019,04,07,08,06,6.40
2019,04,07,08,07,8.10
2019,04,07,08,08,6.40
2019,04,07,08,09,3.20
2019,04,07,08,10,3.20
2019,04,07,08,11,6.40
2019,04,07,08,12,6.40
2019,04,07,08,13,6.40
2019,04,07,08,14,4.80
2019,04,07,08,15,6.40
2019,04,07,08,16,6.40
2019,04,07,08,17,8.10
2019,04,07,08,18,3.20
2019,04,07,08,20,3.20
2019,04,07,08,21,1.60
2019,04,07,08,22,3.20
2019,04,07,08,23,3.20
2019,04,07,08,24,3.20
2019,04,07,08,25,3.20
2019,04,07,08,27,3.20
2019,04,07,08,28,4.80
2019,04,07,08,29,3.20
2019,04,07,08,30,4.80
2019,04,07,08,31,1.60
2019,04,07,08,32,1.60
2019,04,07,08,33,3.20
2019,04,07,08,34,3.20
2019,04,07,08,35,4.80
2019,04,07,08,36,6.40
2019,04,07,08,37,3.20
2019,04,07,08,38,4.80
2019,04,07,08,39,4.80
2019,04,07,08,40,8.10
2019,04,07,08,41,6.40
2019,04,07,08,42,4.80
2019,04,07,08,43,6.40
2019,04,07,08,44,4.80
2019,04,07,08,45,4.80
2019,04,07,08,46,4.80
2019,04,07,08,47,4.80
2019,04,07,08,48,4.80
2019,04,07,08,49,6.40
2019,04,07,08,50,4.80
2019,04,07,08,51,4.80
2019,04,07,08,52,4.80
2019,04,07,08,53,3.20
2019,04,07,08,54,3.20
2019,04,07,08,55,1.60
2019,04,07,08,56,1.60
2019,04,07,08,59,1.60
2019,04,07,09,00,4.80
2019,04,07,09,01,8.10
2019,04,07,09,02,6.40
2019,04,07,09,03,6.40
2019,04,07,09,04,4.80
2019,04,07,09,05,1.60
2019,04,07,09,06,1.60
2019,04,07,09,07,4.80
2019,04,07,09,08,4.80
2019,04,07,09,09,8.10
2019,04,07,09,10,4.80
2019,04,07,09,11,14.50
2019,04,07,09,12,11.30
2019,04,07,09,13,6.40
2019,04,07,09,14,8.10
2019,04,07,09,15,8.10
2019,04,07,09,16,6.40
2019,04,07,09,17,4.80
2019,04,07,09,18,4.80
2019,04,07,09,19,6.40
2019,04,07,09,20,6.40
2019,04,07,09,21,6.40
2019,04,07,09,22,4.80
2019,04,07,09,23,3.20
2019,04,07,09,24,4.80
2019,04,07,09,25,4.80
2019,04,07,09,26,3.20
2019,04,07,09,27,3.20
2019,04,07,09,29,3.20
2019,04,07,09,30,4.80
2019,04,07,09,31,3.20
2019,04,07,09,32,1.60
2019,04,07,09,34,3.20
2019,04,07,09,35,3.20
2019,04,07,09,36,3.20
2019,04,07,09,37,3.20
2019,04,07,09,38,1.60
2019,04,07,09,39,4.80
2019,04,07,09,40,8.10
2019,04,07,09,41,6.40
2019,04,07,09,42,8.10
2019,04,07,09,43,8.10
2019,04,07,09,44,9.60
2019,04,07,09,45,9.60
2019,04,07,09,46,6.40
2019,04,07,09,47,8.10
2019,04,07,09,48,3.20
2019,04,07,09,49,3.20
2019,04,07,09,50,6.40
2019,04,07,09,51,6.40
2019,04,07,09,52,6.40
2019,04,07,09,53,6.40
2019,04,07,09,54,4.80
2019,04,07,09,55,4.80
2019,04,07,09,56,4.80
2019,04,07,09,57,6.40
2019,04,07,09,58,6.40
2019,04,07,09,59,6.40
2019,04,07,10,00,9.60
2019,04,07,10,01,8.10
2019,04,07,10,02,8.10
2019,04,07,10,03,4.80
2019,04,07,10,04,6.40
2019,04,07,10,05,6.40
2019,04,07,10,06,4.80
2019,04,07,10,07,4.80
2019,04,07,10,08,4.80
2019,04,07,10,09,3.20
2019,04,07,10,10,4.80
2019,04,07,10,11,8.10
2019,04,07,10,12,11.30
2019,04,07,10,13,9.60
2019,04,07,10,14,8.10
2019,04,07,10,15,8.10
2019,04,07,10,16,8.10
2019,04,07,10,17,6.40
2019,04,07,10,18,4.80
2019,04,07,10,19,3.20
2019,04,07,10,20,3.20
2019,04,07,10,21,1.60
2019,04,07,10,22,4.80
2019,04,07,10,23,4.80
2019,04,07,10,24,6.40
2019,04,07,10,25,6.40
2019,04,07,10,26,3.20
2019,04,07,10,27,6.40
2019,04,07,10,28,8.10
2019,04,07,10,29,8.10
2019,04,07,10,30,4.80
2019,04,07,10,31,3.20
2019,04,07,10,32,1.60
2019,04,07,10,33,1.60
2019,04,07,10,34,9.60
2019,04,07,10,35,8.10
2019,04,07,10,36,8.10
2019,04,07,10,37,8.10
2019,04,07,10,38,9.60
2019,04,07,10,39,11.30
2019,04,07,10,40,12.90
2019,04,07,10,41,12.90
2019,04,07,10,42,16.10
2019,04,07,10,43,16.10
2019,04,07,10,44,14.50
2019,04,07,10,45,14.50
2019,04,07,10,46,12.90
2019,04,07,10,47,14.50
2019,04,07,10,48,14.50
2019,04,07,10,49,14.50
2019,04,07,10,50,16.10
2019,04,07,10,51,16.10
2019,04,07,10,52,17.70
2019,04,07,10,53,12.90
2019,04,07,10,54,12.90
2019,04,07,10,55,12.90
2019,04,07,10,56,14.50
2019,04,07,10,57,16.10
2019,04,07,10,58,16.10
2019,04,07,10,59,14.50
2019,04,07,11,00,19.30
2019,04,07,11,01,16.10
2019,04,07,11,02,12.90
2019,04,07,11,03,12.90
2019,04,07,11,04,16.10
2019,04,07,11,05,17.70
2019,04,07,11,06,14.50
2019,04,07,11,07,12.90
2019,04,07,11,08,16.10
2019,04,07,11,09,11.30
2019,04,07,11,10,11.30
2019,04,07,11,11,12.90
2019,04,07,11,12,12.90
2019,04,07,11,13,8.10
2019,04,07,11,14,11.30
2019,04,07,11,15,12.90
2019,04,07,11,16,11.30
2019,04,07,11,17,8.10
2019,04,07,11,18,8.10
2019,04,07,11,19,8.10
2019,04,07,11,20,6.40
2019,04,07,11,21,8.10
2019,04,07,11,22,4.80
2019,04,07,11,23,4.80
2019,04,07,11,24,4.80
2019,04,07,11,25,6.40
2019,04,07,11,26,6.40
2019,04,07,11,27,4.80
2019,04,07,11,28,4.80
2019,04,07,11,29,4.80
2019,04,07,11,30,8.10
2019,04,07,11,31,9.60
2019,04,07,11,32,11.30
2019,04,07,11,33,11.30
2019,04,07,11,34,11.30
2019,04,07,11,35,9.60
2019,04,07,11,36,9.60
2019,04,07,11,37,3.20
2019,04,07,11,38,3.20
2019,04,07,11,39,4.80
2019,04,07,11,40,3.20
2019,04,07,11,41,8.10
2019,04,07,11,42,8.10
2019,04,07,11,43,4.80
2019,04,07,11,44,4.80
2019,04,07,11,45,4.80
2019,04,07,11,46,8.10
2019,04,07,11,47,4.80
2019,04,07,11,48,1.60
2019,04,07,11,50,1.60
2019,04,07,11,51,6.40
2019,04,07,11,52,4.80
2019,04,07,11,53,4.80
2019,04,07,11,54,3.20
2019,04,07,11,55,1.60
2019,04,07,11,57,3.20
2019,04,07,11,58,4.80
2019,04,07,11,59,4.80
2019,04,07,12,00,4.80
2019,04,07,12,01,4.80
2019,04,07,12,02,6.40
2019,04,07,12,03,4.80
2019,04,07,12,04,4.80
2019,04,07,12,05,3.20
2019,04,07,12,06,4.80
2019,04,07,12,07,4.80
2019,04,07,12,08,4.80
2019,04,07,12,09,6.40
2019,04,07,12,10,6.40
2019,04,07,12,11,6.40
2019,04,07,12,12,6.40
2019,04,07,12,13,4.80
2019,04,07,12,14,4.80
2019,04,07,12,15,4.80
2019,04,07,12,16,6.40
2019,04,07,12,17,3.20
2019,04,07,12,18,9.60
2019,04,07,12,19,8.10
2019,04,07,12,20,4.80
2019,04,07,12,21,6.40
2019,04,07,12,22,3.20
2019,04,07,12,23,11.30
2019,04,07,12,24,14.50
2019,04,07,12,25,14.50
2019,04,07,12,26,11.30
2019,04,07,12,27,6.40
2019,04,07,12,28,11.30
2019,04,07,12,29,4.80
2019,04,07,12,30,9.60
2019,04,07,12,31,9.60
2019,04,07,12,32,12.90
2019,04,07,12,33,8.10
2019,04,07,12,34,14.50
2019,04,07,12,35,17.70
2019,04,07,12,36,19.30
2019,04,07,12,37,8.10
2019,04,07,12,38,16.10
2019,04,07,12,39,8.10
2019,04,07,12,40,12.90
2019,04,07,12,41,11.30
2019,04,07,12,42,16.10
2019,04,07,12,43,6.40
2019,04,07,12,44,6.40
2019,04,07,12,45,3.20
2019,04,07,12,46,4.80
2019,04,07,12,47,1.60
2019,04,07,12,48,3.20
2019,04,07,12,49,6.40
2019,04,07,12,50,6.40
2019,04,07,12,51,4.80
2019,04,07,12,52,8.10
2019,04,07,12,53,8.10
2019,04,07,12,54,9.60
2019,04,07,12,55,12.90
2019,04,07,12,56,8.10
2019,04,07,12,57,8.10
2019,04,07,12,58,4.80
2019,04,07,12,59,3.20
2019,04,07,13,02,1.60
2019,04,07,13,04,1.60
2019,04,07,13,05,1.60
2019,04,07,13,07,6.40
2019,04,07,13,08,6.40
2019,04,07,13,09,8.10
2019,04,07,13,10,12.90
2019,04,07,13,11,9.60
2019,04,07,13,12,6.40
2019,04,07,13,13,4.80
2019,04,07,13,14,4.80
2019,04,07,13,15,9.60
2019,04,07,13,16,6.40
2019,04,07,13,17,9.60
2019,04,07,13,18,12.90
2019,04,07,13,19,12.90
2019,04,07,13,20,11.30
2019,04,07,13,21,9.60
2019,04,07,13,22,8.10
2019,04,07,13,23,9.60
2019,04,07,13,24,9.60
2019,04,07,13,25,8.10
2019,04,07,13,26,12.90
2019,04,07,13,27,9.60
2019,04,07,13,28,11.30
2019,04,07,13,29,6.40
2019,04,07,13,30,3.20
2019,04,07,13,31,11.30
2019,04,07,13,32,11.30
2019,04,07,13,33,6.40
2019,04,07,13,34,4.80
2019,04,07,13,35,4.80
2019,04,07,13,36,9.60
2019,04,07,13,37,12.90
2019,04,07,13,38,8.10
2019,04,07,13,39,9.60
2019,04,07,13,40,11.30
2019,04,07,13,41,14.50
2019,04,07,13,42,14.50
2019,04,07,13,43,14.50
2019,04,07,13,44,16.10
2019,04,07,13,45,14.50
2019,04,07,13,46,14.50
2019,04,07,13,47,14.50
2019,04,07,13,48,9.60
2019,04,07,13,49,12.90
2019,04,07,13,50,9.60
2019,04,07,13,51,8.10
2019,04,07,13,52,11.30
2019,04,07,13,53,19.30
2019,04,07,13,54,14.50
2019,04,07,13,55,12.90
2019,04,07,13,56,4.80
2019,04,07,13,57,3.20
2019,04,07,13,58,6.40
2019,04,07,13,59,3.20
2019,04,07,14,00,1.60
2019,04,07,14,01,9.60
2019,04,07,14,02,8.10
2019,04,07,14,03,14.50
2019,04,07,14,04,16.10
2019,04,07,14,05,6.40
2019,04,07,14,06,19.30
2019,04,07,14,07,8.10
2019,04,07,14,08,12.90
2019,04,07,14,09,12.90
2019,04,07,14,10,17.70
2019,04,07,14,11,8.10
2019,04,07,14,12,8.10
2019,04,07,14,13,16.10
2019,04,07,14,14,4.80
2019,04,07,14,15,9.60
2019,04,07,14,16,9.60
2019,04,07,14,17,9.60
2019,04,07,14,18,4.80
2019,04,07,14,19,6.40
2019,04,07,14,20,6.40
2019,04,07,14,21,1.60
2019,04,07,14,22,11.30
2019,04,07,14,23,4.80
2019,04,07,14,24,6.40
2019,04,07,14,25,14.50
2019,04,07,14,26,14.50
2019,04,07,14,27,8.10
2019,04,07,14,28,11.30
2019,04,07,14,29,11.30
2019,04,07,14,30,11.30
2019,04,07,14,31,12.90
2019,04,07,14,32,16.10
2019,04,07,14,33,6.40
2019,04,07,14,34,19.30
2019,04,07,14,35,9.60
2019,04,07,14,36,6.40
2019,04,07,14,37,11.30
2019,04,07,14,38,9.60
2019,04,07,14,39,17.70
2019,04,07,14,40,12.90
2019,04,07,14,41,14.50
2019,04,07,14,42,12.90
2019,04,07,14,43,12.90
2019,04,07,14,44,16.10
2019,04,07,14,45,19.30
2019,04,07,14,46,8.10
2019,04,07,14,47,12.90
2019,04,07,14,48,9.60
2019,04,07,14,49,14.50
2019,04,07,14,50,12.90
2019,04,07,14,51,8.10
2019,04,07,14,52,4.80
2019,04,07,14,53,6.40
2019,04,07,14,54,6.40
2019,04,07,14,55,6.40
2019,04,07,14,56,4.80
2019,04,07,14,57,11.30
2019,04,07,14,58,11.30
2019,04,07,14,59,16.10
2019,04,07,15,00,4.80
2019,04,07,15,01,9.60
2019,04,07,15,02,12.90
2019,04,07,15,03,6.40
2019,04,07,15,04,4.80
2019,04,07,15,05,22.50
2019,04,07,15,06,29.00
2019,04,07,15,07,24.20
2019,04,07,15,08,11.30
2019,04,07,15,09,11.30
2019,04,07,15,10,11.30
2019,04,07,15,11,14.50
2019,04,07,15,12,11.30
2019,04,07,15,13,20.90
2019,04,07,15,14,16.10
2019,04,07,15,15,11.30
2019,04,07,15,16,11.30
2019,04,07,15,17,6.40
2019,04,07,15,18,17.70
2019,04,07,15,19,4.80
2019,04,07,15,20,16.10
2019,04,07,15,21,14.50
2019,04,07,15,22,8.10
2019,04,07,15,23,9.60
2019,04,07,15,24,4.80
2019,04,07,15,25,6.40
2019,04,07,15,26,12.90
2019,04,07,15,27,9.60
2019,04,07,15,28,17.70
2019,04,07,15,29,14.50
2019,04,07,15,30,17.70
2019,04,07,15,31,17.70
2019,04,07,15,32,9.60
2019,04,07,15,33,12.90
2019,04,07,15,34,11.30
2019,04,07,15,35,14.50
2019,04,07,15,36,14.50
2019,04,07,15,37,19.30
2019,04,07,15,38,9.60
2019,04,07,15,39,20.90
2019,04,07,15,40,24.20
2019,04,07,15,41,19.30
2019,04,07,15,42,14.50
2019,04,07,15,43,16.10
2019,04,07,15,44,16.10
2019,04,07,15,45,11.30
2019,04,07,15,46,12.90
2019,04,07,15,47,22.50
2019,04,07,15,48,12.90
2019,04,07,15,49,9.60
2019,04,07,15,50,11.30
2019,04,07,15,51,17.70
2019,04,07,15,52,14.50
2019,04,07,15,53,19.30
2019,04,07,15,54,17.70
2019,04,07,15,55,17.70
2019,04,07,15,56,17.70
2019,04,07,15,57,20.90
2019,04,07,15,58,19.30
2019,04,07,15,59,20.90
2019,04,07,16,00,17.70
2019,04,07,16,01,16.10
2019,04,07,16,02,22.50
2019,04,07,16,03,14.50
2019,04,07,16,04,16.10
2019,04,07,16,05,17.70
2019,04,07,16,06,12.90
2019,04,07,16,07,12.90
2019,04,07,16,08,12.90
2019,04,07,16,09,14.50
2019,04,07,16,10,19.30
2019,04,07,16,11,16.10
2019,04,07,16,12,16.10
2019,04,07,16,13,12.90
2019,04,07,16,14,16.10
2019,04,07,16,15,17.70
2019,04,07,16,16,14.50
2019,04,07,16,17,20.90
2019,04,07,16,18,12.90
2019,04,07,16,19,20.90
2019,04,07,16,20,16.10
2019,04,07,16,21,16.10
2019,04,07,16,22,16.10
2019,04,07,16,23,19.30
2019,04,07,16,24,20.90
2019,04,07,16,25,19.30
2019,04,07,16,26,19.30
2019,04,07,16,27,16.10
2019,04,07,16,28,19.30
2019,04,07,16,29,24.20
2019,04,07,16,30,20.90
2019,04,07,16,31,19.30
2019,04,07,16,32,16.10
2019,04,07,16,33,12.90
2019,04,07,16,34,20.90
2019,04,07,16,35,16.10
2019,04,07,16,36,16.10
2019,04,07,16,37,12.90
2019,04,07,16,38,16.10
2019,04,07,16,39,19.30
2019,04,07,16,40,14.50
2019,04,07,16,41,22.50
2019,04,07,16,42,20.90
2019,04,07,16,43,11.30
2019,04,07,16,44,22.50
2019,04,07,16,45,20.90
2019,04,07,16,46,24.20
2019,04,07,16,47,19.30
2019,04,07,16,48,22.50
2019,04,07,16,49,24.20
2019,04,07,16,50,20.90
2019,04,07,16,51,19.30
2019,04,07,16,52,20.90
2019,04,07,16,53,24.20
2019,04,07,16,54,20.90
2019,04,07,16,55,16.10
2019,04,07,16,56,17.70
2019,04,07,16,57,16.10
2019,04,07,16,58,19.30
2019,04,07,16,59,22.50
2019,04,07,17,00,20.90
2019,04,07,17,01,17.70
2019,04,07,17,02,19.30
2019,04,07,17,03,19.30
2019,04,07,17,04,17.70
2019,04,07,17,05,20.90
2019,04,07,17,06,24.20
2019,04,07,17,07,20.90
2019,04,07,17,08,22.50
2019,04,07,17,09,19.30
2019,04,07,17,10,20.90
2019,04,07,17,11,17.70
2019,04,07,17,12,16.10
2019,04,07,17,13,27.40
2019,04,07,17,14,17.70
2019,04,07,17,15,17.70
2019,04,07,17,16,19.30
2019,04,07,17,17,20.90
2019,04,07,17,18,12.90
2019,04,07,17,19,14.50
2019,04,07,17,20,12.90
2019,04,07,17,21,9.60
2019,04,07,17,22,14.50
2019,04,07,17,23,16.10
2019,04,07,17,24,17.70
2019,04,07,17,25,11.30
2019,04,07,17,26,11.30
2019,04,07,17,27,11.30
2019,04,07,17,28,16.10
2019,04,07,17,29,16.10
2019,04,07,17,30,16.10
2019,04,07,17,31,17.70
2019,04,07,17,32,14.50
2019,04,07,17,33,12.90
2019,04,07,17,34,11.30
2019,04,07,17,35,14.50
2019,04,07,17,36,17.70
2019,04,07,17,37,14.50
2019,04,07,17,38,12.90
2019,04,07,17,39,16.10
2019,04,07,17,40,17.70
2019,04,07,17,41,14.50
2019,04,07,17,42,17.70
2019,04,07,17,43,11.30
2019,04,07,17,44,11.30
2019,04,07,17,45,11.30
2019,04,07,17,46,16.10
2019,04,07,17,47,19.30
2019,04,07,17,48,11.30
2019,04,07,17,49,22.50
2019,04,07,17,50,20.90
2019,04,07,17,51,16.10
2019,04,07,17,52,12.90
2019,04,07,17,53,14.50
2019,04,07,17,54,16.10
2019,04,07,17,55,17.70
2019,04,07,17,56,14.50
2019,04,07,17,57,19.30
2019,04,07,17,58,22.50
2019,04,07,17,59,20.90
2019,04,07,18,00,22.50
2019,04,07,18,01,25.70
2019,04,07,18,02,12.90
2019,04,07,18,03,14.50
2019,04,07,18,04,17.70
2019,04,07,18,05,11.30
2019,04,07,18,06,11.30
2019,04,07,18,07,9.60
2019,04,07,18,08,9.60
2019,04,07,18,09,16.10
2019,04,07,18,10,17.70
2019,04,07,18,11,12.90
2019,04,07,18,12,22.50
2019,04,07,18,13,16.10
2019,04,07,18,14,14.50
2019,04,07,18,15,14.50
2019,04,07,18,16,17.70
2019,04,07,18,17,19.30
2019,04,07,18,18,14.50
2019,04,07,18,19,14.50
2019,04,07,18,20,14.50
2019,04,07,18,21,12.90
2019,04,07,18,22,20.90
2019,04,07,18,23,20.90
2019,04,07,18,24,20.90
2019,04,07,18,25,12.90
2019,04,07,18,26,17.70
2019,04,07,18,27,17.70
2019,04,07,18,28,12.90
2019,04,07,18,29,12.90
2019,04,07,18,30,16.10
2019,04,07,18,31,14.50
2019,04,07,18,32,16.10
2019,04,07,18,33,14.50
2019,04,07,18,34,16.10
2019,04,07,18,35,22.50
2019,04,07,18,36,20.90
2019,04,07,18,37,16.10
2019,04,07,18,38,11.30
2019,04,07,18,39,11.30
2019,04,07,18,40,16.10
2019,04,07,18,41,12.90
2019,04,07,18,42,14.50
2019,04,07,18,43,20.90
2019,04,07,18,44,11.30
2019,04,07,18,45,14.50
2019,04,07,18,46,14.50
2019,04,07,18,47,14.50
2019,04,07,18,48,17.70
2019,04,07,18,49,17.70
2019,04,07,18,50,11.30
2019,04,07,18,51,16.10
2019,04,07,18,52,12.90
2019,04,07,18,53,12.90
2019,04,07,18,54,12.90
2019,04,07,18,55,17.70
2019,04,07,18,56,9.60
2019,04,07,18,57,11.30
2019,04,07,18,58,8.10
2019,04,07,18,59,14.50
2019,04,07,19,00,11.30
2019,04,07,19,01,17.70
2019,04,07,19,02,11.30
2019,04,07,19,03,11.30
2019,04,07,19,04,12.90
2019,04,07,19,05,11.30
2019,04,07,19,06,11.30
2019,04,07,19,07,6.40
2019,04,07,19,08,16.10
2019,04,07,19,09,12.90
2019,04,07,19,10,11.30
2019,04,07,19,11,9.60
2019,04,07,19,12,12.90
2019,04,07,19,13,12.90
2019,04,07,19,14,8.10
2019,04,07,19,15,6.40
2019,04,07,19,16,11.30
2019,04,07,19,17,8.10
2019,04,07,19,18,6.40
2019,04,07,19,19,9.60
2019,04,07,19,20,6.40
2019,04,07,19,21,4.80
2019,04,07,19,22,6.40
2019,04,07,19,23,6.40
2019,04,07,19,24,9.60
2019,04,07,19,25,8.10
2019,04,07,19,26,11.30
2019,04,07,19,27,8.10
2019,04,07,19,28,6.40
2019,04,07,19,29,8.10
2019,04,07,19,30,8.10
2019,04,07,19,31,8.10
2019,04,07,19,32,4.80
2019,04,07,19,33,3.20
2019,04,07,19,34,6.40
2019,04,07,19,35,8.10
2019,04,07,19,36,4.80
2019,04,07,19,37,9.60